Tracking 25954 objects as of 14-Aug-2022
HD Live streaming from Space Station
objects crossing your sky now

OBJECT D

Track OBJECT D now!
10-day predictions


NORAD ID: 45019
Int'l Code: 2020-003D
Perigee: 467.4 km
Apogee: 484.4 km
Inclination: 97.2 °
Period: 94.0 minutes
Semi major axis: 6846 km
RCS: Unknown
Launch date: January 15, 2020
Source: (TBD)
Launch site: Taiyaun Space Center, China (TSC)
aabbcc
Your satellite tracking list
Your tracking list is empty




NASA's NSSDC Master Catalog

Two Line Element Set (TLE):
1 45019U 20003D   22226.47049863  .00006152  00000-0  19885-3 0  9997
2 45019  97.2172 285.3797 0012431 159.0602 256.0096 15.32368999143971
Source of the keplerian elements: AFSPC